This demonstration page uses our WeatherBlox Daily Observations layout. Learn more.

Left ArrowRight Arrow

41.86663, -103.66717

Hourly Observations for September 15, 2018

Temp ( °F °C ) Dew Point ( °F °C ) Humidity (%) Winds ( mph kmh ) Pressure ( in mb ) Visibility ( mi km ) Precip ( " mm )
12:53 am 00:53 Clear 61 16.1 58 14.4 90 90 ESE 7 11 29.89 1012 10 16 N/A
1:53 am 01:53 Clear 59 15 57 13.9 93 93 NE 3 6 29.90 1012 10 16 N/A
2:53 am 02:53 Clear 57 13.9 57 13.9 100 100 NW 5 7 29.90 1013 10 16 N/A
3:53 am 03:53 Clear 55 12.8 55 12.8 100 100 N 5 7 29.90 1013 10 16 N/A
4:53 am 04:53 Clear 56 13.3 56 13.3 100 100 N N/A 29.91 1013 8 13 N/A
5:53 am 05:53 Clear with Mist and Fog 55 12.8 55 12.8 100 100 NE 6 9 29.92 1013 6 10 N/A
6:53 am 06:53 Sunny with Mist and Fog 54 12.2 54 12.2 100 100 N N/A 29.96 1015 6 10 N/A
6:57 am 06:57 Mostly Cloudy with Mist and Fog 53 11.7 53 11.7 100 100 N N/A 30.00 1016 1 1 N/A
7:05 am 07:05 Mostly Cloudy with Fog 53 11.7 53 11.7 100 100 N N/A 30.00 1016 0 0 N/A
7:14 am 07:14 Mostly Cloudy with Mist and Fog 53 11.7 53 11.7 100 100 N N/A 30.00 1016 1 2 N/A
7:16 am 07:16 Partly Cloudy with Mist and Fog 53 11.7 53 11.7 100 100 N N/A 30.00 1016 3 4 N/A
7:23 am 07:23 Mostly Sunny 54 12.2 54 12.2 100 100 ESE 3 6 30.00 1016 8 13 N/A
7:53 am 07:53 Sunny 56 13.3 56 13.3 100 100 N N/A 29.98 1015 8 13 N/A
8:53 am 08:53 Sunny 64 17.8 59 15 84 84 N N/A 29.96 1015 10 16 N/A
9:53 am 09:53 Sunny 68 20 59 15 73 73 N N/A 29.96 1014 10 16 N/A
10:53 am 10:53 Sunny 72 22.2 60 15.6 66 66 N N/A 29.94 1014 10 16 N/A
11:53 am 11:53 Sunny 78 25.6 60 15.6 54 54 SE 7 11 29.92 1013 10 16 N/A
12:53 pm 12:53 Sunny 82 27.8 58 14.4 44 44 SE 8 13 29.89 1012 10 16 N/A
1:53 pm 13:53 Sunny 89 31.7 59 15 36 36 ESE 8 13 29.84 1010 10 16 N/A
2:53 pm 14:53 Sunny 97 36.1 45 7.2 17 17 SSE 15 24 29.79 1009 10 16 N/A
3:53 pm 15:53 Sunny 97 36.1 42 5.6 15 15 SSE 14 22 29.78 1008 10 16 N/A
4:53 pm 16:53 Sunny 96 35.6 43 6.1 16 16 SSE 14 22 29.77 1008 10 16 N/A
5:53 pm 17:53 Sunny 93 33.9 42 5.6 17 17 SSE 10 17 29.76 1008 10 16 N/A
6:53 pm 18:53 Sunny 88 31.1 47 8.3 24 24 SE 15 24 29.78 1008 10 16 N/A
7:53 pm 19:53 Clear 84 28.9 53 11.7 34 34 SE 18 30 29.80 1009 10 16 N/A
8:53 pm 20:53 Clear 76 24.4 55 12.8 48 48 E 10 17 29.83 1010 9 14 N/A
9:53 pm 21:53 Clear 75 23.9 55 12.8 50 50 ESE 12 19 29.83 1010 10 16 N/A
10:53 pm 22:53 Clear 76 24.4 58 14.4 54 54 ESE 14 22 29.83 1010 10 16 N/A
11:53 pm 23:53 Clear 75 23.9 59 15 58 58 ESE 14 22 29.81 1010 10 16 N/A

Powered by AerisWeather